Theta_e
334 335 336 338 338 339 339 339 339 340 341 340 341 342 343 343 344 344 344 346 346 345 346 348 348 349 349 349 349 349 349 349 349 350 349 349 349 348 347 347 348 347 348 349 350 352 354 355 355 355 357 359 359 360 360 360 359 360 359 358 357 356 354
332 334 336 338 338 338 339 339 339 340 341 342 342 343 343 343 344 344 344 346 346 346 346 347 349 348 348 348 349 349 349 349 350 351 351 349 349 349 348 348 348 349 349 351 352 353 354 355 355 355 355 359 359 359 360 360 359 358 358 357 356 355 354
332 334 336 337 338 338 338 339 340 341 342 342 343 343 343 343 344 345 345 345 346 346 346 347 349 348 348 348 348 349 349 349 349 350 350 350 349 349 350 349 349 350 351 352 353 353 355 355 355 355 355 356 358 359 359 359 360 359 358 357 357 355 354
332 334 336 338 338 339 339 339 340 341 342 343 343 344 344 345 345 346 346 346 346 347 346 347 348 349 349 348 348 348 349 350 350 350 350 351 350 350 351 350 350 349 351 352 354 355 356 356 355 355 358 355 356 358 359 359 359 359 359 358 357 355 354
333 335 337 337 338 338 339 339 340 340 341 344 344 345 345 346 347 347 347 347 347 347 348 348 349 350 351 350 349 349 350 350 351 351 351 352 352 351 351 351 351 350 350 353 354 355 356 355 355 355 355 355 355 356 357 358 359 359 358 358 357 356 354
332 334 336 337 338 338 339 340 340 341 341 342 344 345 346 347 347 347 348 348 348 348 349 349 348 350 350 351 350 350 350 351 352 352 352 352 352 351 351 352 352 351 351 351 355 355 356 356 356 355 354 355 355 356 356 357 358 358 358 358 357 357 355
333 334 336 337 338 338 339 340 341 341 342 343 345 346 347 348 347 348 348 348 348 347 348 349 349 349 350 351 351 351 350 350 351 352 353 353 353 352 351 352 353 353 352 352 352 356 355 356 356 355 355 354 355 355 355 355 356 357 357 356 356 356 356
333 334 335 337 338 339 340 340 341 342 342 343 345 346 346 348 348 348 348 349 349 349 348 349 349 350 350 351 351 351 351 351 352 353 353 352 353 352 352 352 352 354 354 353 353 354 356 355 356 356 355 354 354 355 355 356 355 356 356 355 355 355 356
333 334 335 336 337 339 340 340 341 341 341 342 344 346 346 347 348 348 348 349 349 349 349 350 350 351 351 351 351 351 352 352 352 352 352 352 352 352 353 352 351 352 354 355 354 355 355 356 355 355 355 354 354 354 354 355 355 356 356 355 355 355 355
331 332 334 336 337 338 340 341 341 341 340 341 343 345 346 347 348 348 349 349 350 349 350 350 351 352 351 351 351 351 352 352 352 352 352 352 353 352 353 353 353 352 351 354 356 356 356 356 356 356 355 354 354 354 354 354 355 355 355 355 355 355 355
330 331 332 334 335 336 338 340 340 340 340 341 342 344 346 347 348 349 349 350 350 350 351 351 352 352 352 352 351 351 351 351 352 352 352 352 353 353 353 353 353 352 351 351 352 355 356 356 356 356 356 355 354 354 354 354 354 354 355 355 356 355 355
329 330 331 332 334 334 335 338 340 340 340 341 342 343 345 346 348 349 350 350 352 351 352 352 352 352 352 352 351 351 351 351 352 352 352 352 352 353 353 353 353 352 352 351 350 351 354 356 355 355 355 356 355 354 354 355 355 355 355 355 356 356 356
329 329 330 332 333 334 334 335 337 339 340 341 342 343 345 346 347 348 349 350 352 353 353 353 353 352 352 352 352 351 351 351 351 352 352 353 353 353 353 353 353 352 351 352 351 350 350 354 355 355 354 355 356 355 354 354 355 355 355 356 356 356 356
336 329 330 332 332 332 333 334 336 338 339 341 342 344 345 347 348 349 349 350 352 353 354 354 354 353 352 352 351 351 352 352 352 352 353 353 353 353 353 353 353 352 352 352 351 350 350 351 354 355 355 354 355 356 356 354 354 355 356 356 356 356 356
328 328 329 330 331 332 333 333 334 336 338 340 341 342 345 347 348 349 350 351 352 353 354 355 354 354 353 352 352 351 352 353 353 354 353 354 353 353 352 352 352 352 352 352 351 351 351 352 352 354 355 355 354 354 356 355 355 355 355 356 356 356 355
327 328 328 329 330 331 332 334 335 336 337 339 340 341 343 346 348 349 350 351 352 353 354 355 354 354 354 353 353 353 353 353 354 354 354 353 353 352 352 352 352 352 351 351 352 351 351 351 352 353 354 354 354 353 354 355 357 348 336 340 355 356 356
325 326 327 328 329 330 332 333 335 336 337 339 340 341 342 344 347 350 351 351 352 353 355 355 354 354 354 354 354 354 354 353 353 354 353 353 353 353 352 352 351 351 351 351 351 351 351 351 351 352 353 353 354 353 353 354 354 338 333 333 336 351 356
323 326 327 328 329 330 332 333 334 336 338 340 342 342 343 344 346 348 350 351 351 352 356 356 356 355 355 355 355 355 354 354 354 353 353 353 353 353 353 352 351 350 350 350 350 351 352 351 351 351 352 353 354 353 354 354 340 334 332 331 331 336 354
323 326 327 328 330 331 332 333 334 337 339 342 343 343 343 345 346 348 350 351 352 353 353 356 357 356 356 356 356 356 356 355 354 353 353 353 353 353 353 352 351 350 349 349 350 350 351 351 351 351 352 353 353 353 354 354 339 332 330 330 330 330 339
336 336 336 335 333 333 335 337 336 337 339 341 343 345 345 346 347 349 351 352 353 352 352 353 355 357 357 357 357 357 357 356 355 354 353 354 353 353 352 352 350 350 350 350 350 349 350 351 351 351 351 351 352 353 354 354 340 330 327 327 328 329 332
340 341 340 340 341 342 343 344 344 342 342 341 342 343 345 347 348 349 351 352 352 352 352 352 353 355 357 357 358 358 357 357 355 354 354 354 353 353 352 352 352 351 351 350 350 349 349 350 350 351 351 351 352 352 352 354 337 329 325 324 324 327 329
337 339 339 340 340 341 343 344 343 342 341 343 342 343 348 349 351 351 351 353 353 353 353 352 352 352 354 356 357 358 358 357 356 355 354 354 353 352 352 352 352 351 351 351 351 351 351 351 352 352 352 352 352 351 351 353 333 327 324 323 323 325 337
340 341 343 344 346 346 347 351 351 351 352 352 353 353 352 347 346 352 352 352 352 352 353 352 352 351 352 354 356 357 358 358 357 356 355 354 353 352 351 351 352 352 353 351 350 350 350 351 352 353 353 353 353 352 352 353 338 325 322 321 321 324 341
342 344 345 346 348 348 348 348 348 350 350 351 352 354 355 356 355 353 353 349 349 350 351 351 351 352 352 352 355 356 357 358 358 356 355 354 353 353 352 352 352 352 353 351 350 349 350 351 351 352 354 353 354 354 353 352 343 323 319 319 320 327 344
341 342 343 344 345 345 346 347 349 351 351 349 348 350 353 357 357 356 354 356 352 345 347 349 350 351 351 352 354 355 357 358 358 357 357 355 355 355 354 353 352 353 353 353 352 351 351 351 351 351 352 353 354 348 351 354 344 321 319 317 318 327 345
338 341 342 343 345 346 346 348 348 348 347 346 346 350 352 354 357 359 358 356 354 353 345 344 347 350 352 352 354 355 355 357 358 358 357 356 356 356 355 355 354 353 353 353 353 352 351 351 351 350 351 352 353 354 353 354 354 337 317 317 317 320 344
338 340 342 343 344 350 345 345 346 346 346 346 347 349 351 353 354 354 355 355 349 349 353 353 348 347 350 351 354 355 355 356 358 358 358 358 357 357 357 357 355 354 354 353 353 353 352 351 351 351 351 351 352 353 353 355 354 346 315 315 315 316 325
338 339 341 344 349 347 343 345 344 344 346 347 349 350 350 351 352 354 355 349 351 356 362 361 359 351 349 351 354 355 355 356 357 358 359 358 358 357 356 357 357 356 355 355 354 353 352 352 351 351 351 351 352 352 352 353 345 355 318 315 313 314 314
335 336 338 339 341 345 344 342 343 343 344 346 347 348 349 351 350 354 354 349 352 357 359 360 360 354 349 351 354 355 356 356 357 358 359 359 358 357 356 357 357 357 356 355 354 354 353 353 352 351 351 351 351 352 353 353 351 336 336 314 312 312 312
334 336 338 341 342 343 344 342 342 342 345 345 346 346 347 349 349 354 353 348 353 356 357 358 358 353 350 350 352 355 356 357 358 359 360 359 359 358 357 357 358 358 357 356 355 354 354 353 353 352 352 351 351 352 353 354 355 337 329 327 312 312 311
333 334 336 337 340 344 342 341 342 343 343 343 343 344 346 347 347 349 348 350 354 354 355 356 358 355 350 350 352 355 356 357 358 359 360 360 360 358 358 358 359 357 357 357 356 355 354 354 353 353 352 351 351 350 351 355 356 356 338 324 316 313 312
333 334 336 337 339 342 340 341 342 342 341 341 342 343 346 346 346 345 346 350 353 354 354 355 356 358 351 350 352 355 357 357 358 360 361 361 361 361 360 360 359 358 357 357 357 356 355 354 353 353 353 352 352 351 352 353 355 348 336 329 325 320 313
332 333 334 335 338 341 338 338 338 340 340 340 340 341 343 344 344 346 347 350 352 352 353 355 357 358 354 350 353 356 357 358 359 360 361 361 361 362 362 362 361 359 357 358 357 356 355 355 353 353 353 353 353 354 353 354 346 337 338 336 329 328 325
330 333 334 335 337 341 336 335 335 338 337 337 338 340 342 343 343 345 347 350 352 352 354 355 357 356 353 353 355 358 357 359 369 363 361 362 362 362 362 362 362 360 358 358 359 357 356 356 355 354 355 354 355 355 355 345 333 333 333 332 335 332 327
328 331 333 334 336 341 337 335 337 336 336 337 339 340 340 342 343 346 347 348 348 349 351 353 360 358 352 353 357 358 360 361 364 360 361 356 333 319 315 317 337 356 350 335 328 353 361 359 358 358 358 357 356 356 347 339 335 331 318 319 308 325 334
327 328 331 335 337 338 339 339 338 337 337 338 339 339 339 339 340 343 346 347 347 348 347 347 353 350 350 351 352 355 360 361 361 361 360 350 336 331 324 316 303 308 327 325 320 309 310 334 353 354 342 330 322 327 345 344 334 309 301 301 298 297 297
327 328 330 334 334 335 339 338 341 339 338 338 339 339 339 339 339 341 344 345 345 347 346 347 350 348 348 348 348 348 355 356 358 359 358 350 341 334 328 324 319 302 301 309 311 307 302 301 303 312 321 330 322 314 306 307 301 298 298 296 297 297 297
328 329 331 333 334 335 339 339 337 337 336 336 337 337 337 338 339 340 342 342 344 348 348 347 347 346 347 348 348 348 350 351 354 355 351 345 341 337 332 329 325 323 308 301 304 304 301 301 301 302 304 309 314 316 315 304 298 297 297 297 297 297 296
Wind_Speed
20 19 18 18 18 19 20 20 20 19 19 19 19 20 20 18 18 18 18 18 20 20 19 19 19 17 19 17 17 15 14 13 12 11 11 10 9 10 10 9 10 9 8 9 9 9 9 8 9 9 8 9 9 9 8 7 7 7 7 6 6 6 7
19 19 20 19 19 20 21 21 20 18 18 19 19 20 19 20 18 18 18 19 20 21 20 19 19 17 18 17 15 15 15 15 14 11 10 8 7 8 9 9 10 10 10 9 8 7 7 9 9 9 9 9 10 9 9 8 8 7 7 7 7 6 6
21 20 20 20 20 19 20 19 19 19 19 18 18 18 19 20 20 21 20 19 19 18 16 17 17 17 17 16 15 15 15 14 13 13 13 11 11 10 9 9 9 9 9 8 7 8 8 9 9 9 9 10 10 9 9 9 9 8 8 7 7 7 7
21 21 21 22 22 22 22 21 22 21 19 20 20 21 21 22 20 19 19 20 20 18 19 18 17 16 15 15 15 14 15 14 14 14 14 12 12 10 9 8 8 8 7 9 9 9 8 9 10 10 10 9 9 9 9 10 9 9 9 8 7 8 8
21 21 20 19 19 17 17 18 20 20 21 21 21 22 22 20 18 17 17 18 20 20 21 20 17 17 15 15 13 13 14 15 14 13 12 12 11 9 10 11 10 10 11 9 8 8 9 9 10 10 10 9 9 9 10 9 9 9 9 8 8 7 7
21 21 20 19 19 19 19 21 22 22 22 22 22 19 17 18 16 18 18 18 19 19 18 17 17 16 16 16 14 13 13 13 13 13 12 12 12 12 12 13 12 12 11 11 9 9 10 10 10 10 10 9 10 9 9 10 10 9 9 8 9 8 8
19 20 21 20 19 19 19 19 20 20 20 21 19 17 16 17 19 19 17 18 19 20 19 18 18 17 16 14 15 15 15 14 14 14 13 12 12 12 12 11 11 12 12 9 10 9 9 10 11 11 11 10 10 11 10 10 10 9 9 9 9 9 9
21 19 20 20 20 19 19 19 19 19 17 14 14 16 18 18 17 18 19 18 18 18 18 19 18 17 16 15 14 16 16 16 14 14 13 13 13 13 12 11 11 11 9 11 11 11 11 11 10 10 11 11 11 11 11 11 11 10 9 10 10 10 8
21 22 21 20 20 19 19 19 19 19 19 18 19 19 19 18 17 18 20 19 17 18 19 19 19 17 16 15 15 17 16 15 15 14 14 15 13 13 13 11 11 9 10 12 11 11 11 12 11 11 11 11 11 11 11 12 11 11 11 11 12 12 11
21 19 21 21 19 18 17 17 17 16 17 16 15 16 18 18 17 17 17 17 17 19 20 18 16 16 16 15 16 16 15 15 15 15 15 15 13 14 14 12 11 10 11 11 10 11 11 11 11 11 11 12 12 12 12 12 12 11 12 13 13 12 13
20 21 19 17 17 16 15 15 16 16 17 17 17 17 18 18 17 16 16 16 17 17 17 16 15 15 16 16 17 17 16 17 16 16 16 16 14 15 15 14 13 11 12 11 11 11 11 10 10 11 11 12 13 13 13 13 13 13 13 12 12 13 13
20 18 17 18 18 16 17 18 17 16 16 15 16 17 17 17 16 16 15 17 16 16 16 17 15 16 16 16 17 16 17 17 16 17 17 17 16 16 16 15 14 13 12 13 13 12 11 12 11 11 13 13 14 14 14 13 13 14 14 14 13 12 13
18 17 18 20 19 18 16 14 16 18 18 17 17 17 16 16 16 16 15 16 17 16 16 16 16 16 16 16 17 15 16 16 16 16 16 16 16 15 15 15 15 15 15 14 14 13 12 12 13 12 13 14 13 14 14 13 13 13 13 13 13 13 13
19 18 17 17 16 16 17 17 17 17 17 17 16 16 15 15 16 17 17 17 17 16 16 15 16 17 17 17 16 16 16 16 16 16 15 15 15 15 16 15 15 15 14 13 14 14 14 14 14 14 13 14 14 14 13 12 12 13 13 13 13 13 13
20 20 20 20 20 19 19 17 16 17 17 17 16 16 16 15 15 15 14 15 16 16 17 16 16 17 17 16 16 17 16 15 14 13 14 14 14 15 15 15 15 14 14 13 13 13 14 14 14 14 14 14 14 14 12 12 13 12 13 13 14 14 14
21 20 19 20 19 19 18 19 18 18 18 16 17 17 16 15 15 16 16 16 16 16 16 16 17 17 17 17 17 16 15 15 13 13 14 15 15 15 15 15 14 14 14 14 14 14 14 14 14 14 15 15 15 14 12 12 11 14 20 17 14 14 13
20 19 18 17 16 15 14 15 15 15 16 17 17 17 17 16 16 15 15 15 15 16 15 15 15 15 16 16 16 16 15 14 14 14 15 15 14 14 15 15 14 13 14 14 14 15 14 14 15 15 15 16 15 15 14 13 13 19 18 20 21 16 13
18 18 18 17 15 14 14 14 14 16 17 17 17 17 16 15 15 15 16 15 15 15 15 15 15 16 16 16 15 15 14 14 14 14 15 14 15 15 14 13 14 14 14 14 15 14 13 14 15 16 15 14 15 15 15 14 16 19 19 20 21 19 15
15 15 16 16 15 15 15 15 15 16 16 15 16 15 16 16 15 16 16 15 14 13 14 15 15 15 16 15 15 15 15 15 15 16 15 15 15 14 13 13 14 14 15 16 15 13 14 15 16 16 15 15 16 16 16 14 18 20 20 20 21 22 19
10 9 8 7 6 6 5 5 5 7 10 12 13 16 15 14 16 15 14 14 13 14 14 14 14 15 15 15 15 15 15 15 15 15 15 15 14 14 14 14 16 15 14 13 12 14 14 15 16 16 15 16 16 15 15 15 17 20 21 20 21 21 18
14 13 12 11 10 8 6 7 7 6 5 4 5 5 6 8 9 9 10 11 12 12 12 13 13 13 14 15 15 14 14 15 15 15 15 15 15 15 15 16 15 15 14 13 14 14 15 15 16 16 15 16 15 14 15 14 18 18 19 19 20 20 17
14 15 14 10 12 9 9 8 9 9 6 4 6 3 4 5 6 9 10 11 12 12 12 13 13 13 13 14 15 15 15 15 15 15 15 15 15 15 16 16 15 16 14 13 13 13 12 13 13 14 14 14 14 14 15 14 16 17 18 19 19 18 12
14 14 13 12 13 11 9 9 11 8 8 9 8 7 5 2 5 9 10 12 12 12 12 13 13 13 12 14 15 15 15 15 16 15 15 15 15 15 15 15 15 14 12 13 14 14 14 14 14 13 13 14 14 15 15 13 13 16 17 18 19 14 11
14 15 14 13 12 12 11 9 10 10 10 10 11 8 5 5 5 4 4 5 6 8 11 12 13 13 12 13 14 15 15 16 16 16 15 15 16 16 15 15 14 14 13 15 15 15 15 14 13 13 13 13 15 14 14 13 11 15 16 19 20 18 14
13 13 13 12 12 12 11 10 10 10 10 11 11 7 6 7 6 7 5 3 2 5 7 9 11 11 12 12 12 14 15 16 16 16 16 16 16 15 15 15 15 14 13 14 13 14 13 12 13 13 12 14 14 16 16 13 11 16 17 20 20 18 12
13 14 13 12 11 9 9 9 12 13 12 11 8 5 7 6 6 6 4 4 2 1 5 7 8 8 10 12 12 12 13 14 16 16 16 16 15 14 14 13 12 13 13 13 12 12 12 12 12 14 13 12 12 12 13 12 10 11 18 19 21 23 15
11 11 12 13 12 10 10 10 10 10 9 7 7 6 6 6 7 6 4 3 3 3 3 3 4 7 8 7 9 11 13 12 14 16 15 15 15 15 14 12 12 12 12 13 11 11 11 12 12 12 12 11 11 11 10 10 9 10 18 19 21 23 20
12 13 11 11 13 12 10 9 9 9 10 9 10 9 7 5 6 4 4 3 4 4 4 4 4 4 6 9 10 10 11 12 12 13 13 13 13 12 12 11 12 12 12 11 11 13 13 12 11 11 10 9 9 8 8 9 14 8 15 19 21 21 24
11 11 11 11 12 11 11 10 9 9 8 7 8 8 8 8 7 5 4 5 5 5 4 4 5 3 6 7 9 10 10 10 12 11 9 10 12 13 13 11 11 11 11 11 11 11 12 11 10 10 9 8 7 5 6 6 9 14 12 17 21 22 21
10 10 9 8 8 8 9 9 8 8 7 8 8 7 7 7 7 6 6 5 5 6 5 5 6 3 4 6 6 8 9 10 10 10 9 11 11 11 11 11 10 10 10 11 10 10 10 9 8 8 8 8 7 5 5 5 6 11 16 15 20 20 21
10 11 11 11 11 7 8 8 8 7 7 7 8 7 7 6 7 6 7 7 5 6 6 6 6 4 3 5 6 6 5 6 8 9 9 9 10 10 10 9 9 9 8 8 8 8 9 8 7 8 8 7 7 6 6 6 6 7 12 16 17 20 20
11 11 12 12 13 11 8 9 9 8 7 8 8 8 7 7 5 6 7 7 5 5 6 5 6 6 3 4 5 6 6 7 6 7 8 9 9 10 9 11 10 10 8 8 8 8 8 7 7 7 7 7 6 6 6 6 6 2 3 2 6 7 10
11 10 10 11 10 9 7 7 8 8 7 8 7 7 7 7 7 5 6 7 6 5 5 6 5 5 3 4 4 5 7 8 7 7 6 6 6 6 7 7 8 8 8 8 8 8 7 7 7 7 7 7 6 6 6 6 3 3 3 3 3 2 4
12 13 12 10 10 10 6 6 6 6 6 7 7 7 7 7 7 7 6 6 4 4 4 4 4 5 4 2 4 6 7 8 10 10 7 7 6 5 5 6 8 8 8 9 9 8 7 7 7 8 8 7 7 6 6 3 4 4 4 2 3 3 3
10 9 9 11 11 10 8 4 5 5 6 7 6 7 7 8 8 7 6 5 5 4 4 4 4 4 4 1 3 5 5 7 8 8 8 8 11 9 8 5 4 1 3 6 4 3 8 9 8 8 8 7 7 7 4 3 5 5 2 3 3 3 4
7 7 8 7 8 9 9 5 5 6 7 5 6 7 7 8 8 8 7 6 7 5 4 3 3 4 4 4 1 3 6 6 6 7 8 10 9 10 10 15 14 11 6 4 8 8 7 3 4 3 6 7 4 2 5 7 5 7 7 4 6 8 8
9 9 9 8 8 9 8 7 4 7 6 5 5 6 6 6 7 7 8 8 7 5 4 3 3 4 4 4 4 2 4 5 6 6 8 9 9 9 10 8 12 16 15 11 11 14 16 16 14 12 8 9 7 7 14 14 12 10 6 7 6 7 8
8 6 6 6 7 6 5 6 4 5 5 4 5 5 5 5 6 6 7 7 7 6 6 6 5 5 4 4 4 4 3 5 6 7 8 8 8 9 10 10 11 10 14 14 15 16 16 16 16 15 15 13 12 10 5 7 8 8 8 8 8 9 9
Wind_Direction
181 182 183 182 184 186 187 188 184 181 182 181 180 181 181 181 182 180 184 185 188 188 188 184 186 187 190 194 196 195 195 194 193 196 197 199 198 195 194 193 194 196 192 194 196 193 194 186 190 193 193 197 199 201 203 200 203 207 205 207 202 200 203
183 185 184 184 187 189 190 186 184 183 183 184 183 180 181 182 180 182 184 185 189 189 188 187 185 187 191 194 193 194 195 196 195 196 197 199 197 199 197 193 191 193 195 197 192 191 180 192 191 191 195 197 202 201 201 201 199 201 203 205 203 207 200
186 185 184 186 187 190 188 186 186 185 185 184 183 180 183 183 182 183 182 184 187 188 187 191 189 188 190 191 191 195 196 196 197 197 197 199 197 195 196 195 195 192 196 191 187 187 188 190 193 195 193 196 200 201 202 203 202 201 203 198 202 204 205
186 186 186 186 188 188 185 185 186 186 186 185 184 184 186 186 185 182 181 182 183 184 187 190 189 190 191 191 193 194 197 198 198 199 201 200 200 198 192 197 199 196 186 195 193 187 188 191 194 196 195 195 199 201 201 204 204 204 205 200 202 205 208
186 184 185 189 189 185 185 186 188 187 186 187 188 189 186 182 179 180 183 183 182 185 188 188 189 190 190 190 194 196 196 196 197 200 203 204 202 196 199 200 200 200 200 195 188 187 188 191 195 195 198 199 201 200 202 204 206 205 207 203 206 204 208
188 184 183 187 187 187 187 187 188 188 187 186 189 187 181 177 179 183 185 182 186 188 187 187 190 190 191 192 193 195 194 197 199 200 202 203 199 199 202 203 202 204 202 200 188 190 188 191 195 196 196 200 202 202 203 203 207 204 206 204 210 205 204
186 185 187 186 185 187 187 187 188 190 190 190 185 180 177 177 182 185 183 187 188 186 186 188 192 191 194 190 194 192 193 195 195 200 202 205 205 207 208 205 204 204 206 196 197 189 188 192 196 195 198 197 201 203 203 205 206 205 204 205 210 210 207
182 185 187 186 185 184 186 186 187 189 189 185 178 180 183 184 184 182 185 188 188 187 188 190 191 193 193 192 193 194 193 194 196 200 200 203 205 209 210 207 204 204 199 200 204 195 197 197 194 196 196 199 202 206 207 206 207 206 203 208 211 213 209
183 182 183 185 183 183 184 183 184 184 183 182 182 183 184 183 185 186 188 186 186 187 191 191 192 192 191 193 194 196 195 194 196 197 199 202 204 210 211 211 209 199 198 203 202 201 202 202 201 198 196 201 204 206 209 209 208 207 206 209 210 212 213
180 184 186 186 180 181 181 182 181 181 182 181 180 181 185 187 189 189 187 186 185 190 191 191 192 191 191 194 198 196 194 194 196 196 199 202 204 209 210 210 211 204 205 206 202 202 206 203 203 202 201 205 206 208 211 211 210 209 209 210 210 213 214
183 182 183 180 175 177 176 175 180 184 183 182 183 184 186 188 189 186 186 185 187 190 188 190 189 190 193 194 197 197 196 196 195 196 198 201 203 208 208 210 209 207 210 207 207 206 204 206 202 203 204 208 210 210 212 212 209 210 212 212 212 213 214
180 177 178 176 175 173 174 181 183 180 183 184 185 185 186 189 189 187 186 188 185 186 186 189 188 191 192 195 198 200 199 198 196 197 198 200 203 206 207 208 208 207 210 208 210 209 206 205 204 204 207 211 212 212 213 212 210 211 213 212 212 213 216
178 176 175 176 176 178 177 175 177 181 182 183 184 186 186 187 187 187 188 186 187 187 187 187 188 190 192 195 198 200 202 200 199 199 199 200 203 204 207 208 208 208 210 208 210 208 208 207 207 210 210 213 213 215 214 212 212 213 213 214 212 213 214
178 173 173 176 177 174 177 179 179 179 181 182 185 185 185 186 186 187 188 188 187 186 187 187 188 190 191 193 197 200 202 202 200 199 200 200 202 206 208 208 208 209 210 207 209 210 210 209 209 211 212 215 215 217 214 212 214 214 214 213 214 213 216
177 176 175 177 180 179 180 176 176 179 181 183 181 180 182 185 188 190 190 187 187 188 190 185 188 191 192 193 196 200 202 201 201 200 200 200 202 206 208 209 210 209 209 208 209 210 211 211 211 212 215 218 217 218 215 213 215 214 212 212 215 215 217
177 178 178 181 182 182 181 177 176 178 180 180 182 182 182 185 188 189 188 188 188 191 189 185 189 190 192 195 197 199 198 198 198 199 199 200 203 205 207 209 210 210 211 211 210 210 210 211 212 213 215 217 218 218 217 218 217 216 212 210 212 215 219
175 178 178 181 182 182 175 176 176 175 177 181 183 183 184 188 189 190 189 189 189 189 189 186 188 190 194 197 199 198 196 195 199 198 201 203 204 205 206 208 208 210 213 214 212 211 210 211 212 214 215 216 216 216 218 219 220 214 210 212 213 213 217
176 175 175 177 176 173 177 175 170 175 180 182 183 183 186 188 189 189 194 192 191 189 186 186 188 191 194 198 198 196 194 196 197 200 203 201 204 204 205 206 207 211 213 214 214 212 210 212 214 216 216 217 218 219 219 221 219 214 210 210 212 213 217
171 174 174 171 169 174 179 178 178 179 179 179 179 180 186 184 185 193 194 193 192 187 188 188 189 191 196 197 196 196 195 196 197 200 201 202 202 203 202 204 208 211 212 215 215 212 212 214 215 217 217 217 218 220 220 223 218 213 211 210 210 212 215
84 90 90 94 117 137 138 139 145 167 179 180 184 185 182 181 187 190 190 192 190 190 190 190 192 191 194 196 196 195 195 196 197 200 201 200 200 198 200 202 208 210 212 215 214 216 217 216 218 218 218 219 220 222 223 223 219 211 210 210 210 210 208
79 81 79 87 87 90 103 116 116 112 120 152 178 183 179 192 196 188 190 191 191 191 191 194 195 192 192 194 196 195 195 195 197 199 200 200 198 198 200 203 206 207 209 210 212 214 217 217 218 220 219 220 222 224 226 227 220 210 209 210 209 210 205
77 79 79 78 86 78 79 88 101 102 95 88 92 111 163 188 189 184 195 192 193 194 195 196 198 197 192 194 195 195 194 193 195 198 199 199 198 199 202 203 203 206 206 209 213 216 219 223 223 224 224 224 224 227 232 231 216 208 205 207 209 206 207
74 77 81 74 74 76 74 76 78 82 85 74 71 64 51 79 167 192 195 195 198 196 197 197 201 201 194 194 194 194 193 194 195 196 197 197 198 200 202 203 205 208 203 209 212 212 215 219 219 222 223 222 223 226 232 234 215 203 202 202 203 197 212
66 69 71 75 72 69 65 67 71 64 64 68 60 48 36 38 59 94 140 191 204 199 203 200 204 203 196 196 194 192 192 193 194 196 196 197 199 199 202 203 204 205 200 206 209 214 216 215 220 221 222 221 223 223 229 231 213 196 197 196 195 194 206
56 61 62 62 66 68 62 60 66 69 62 56 50 33 36 38 45 56 47 60 137 183 208 216 212 205 203 198 193 193 192 192 194 196 196 197 198 199 200 201 201 203 201 207 210 214 214 215 218 221 221 221 223 220 221 227 214 193 191 192 194 196 209
48 51 52 49 48 59 66 59 56 52 50 48 41 36 38 37 43 41 28 359 3 131 192 211 220 219 213 199 193 193 192 192 193 195 196 197 197 199 200 200 201 201 202 206 209 212 214 215 218 221 222 221 222 223 221 222 220 192 190 190 195 195 201
44 49 55 50 45 37 45 51 59 59 51 46 41 35 33 33 36 24 2 351 357 331 286 257 233 217 210 207 199 192 192 193 194 195 197 195 195 197 198 196 198 199 200 204 206 210 213 216 219 222 226 222 222 225 221 216 216 196 187 194 195 199 200
39 39 41 50 48 44 43 46 47 52 43 32 28 19 23 35 41 26 2 18 10 318 297 301 282 234 209 192 195 197 194 193 195 196 195 194 192 195 199 196 196 197 199 201 203 206 211 213 218 222 225 225 222 221 218 205 200 197 192 193 198 199 202
36 39 36 38 43 40 43 39 35 40 43 32 31 21 15 15 21 23 26 17 335 310 312 308 302 252 209 203 192 191 192 193 189 189 190 191 190 191 195 192 193 195 194 198 202 206 210 213 215 220 226 226 221 214 206 201 200 195 190 199 199 202 203
28 35 41 44 56 56 52 49 38 33 31 27 22 19 16 23 9 4 4 343 317 318 323 333 325 287 204 204 205 192 187 186 187 185 185 185 184 189 190 190 192 190 192 194 198 201 209 210 210 217 223 226 223 213 203 199 195 203 196 197 204 203 203
20 21 22 24 24 35 56 58 60 50 33 21 15 7 6 13 12 356 353 326 328 331 329 331 335 310 212 201 193 188 184 174 175 179 177 178 177 181 185 187 183 188 191 191 197 200 204 205 200 211 218 220 222 214 210 201 201 209 211 208 204 206 209
17 19 19 19 14 11 30 35 39 41 31 14 11 2 360 349 1 348 318 313 320 328 328 338 344 330 264 204 181 173 162 162 167 170 170 168 177 180 180 177 179 185 182 186 194 195 197 199 197 207 211 216 218 213 210 208 203 178 45 64 169 199 216
9 13 18 15 10 9 15 38 31 22 21 13 356 356 345 338 335 326 317 319 312 325 331 336 345 336 311 216 180 162 159 157 157 154 155 162 163 170 171 172 176 179 177 184 190 192 198 196 194 203 205 216 217 212 211 207 134 86 82 60 122 131 175
7 4 1 6 5 8 5 36 37 20 20 7 348 345 343 338 331 324 329 321 335 345 340 336 332 332 314 233 173 164 161 159 156 148 151 152 146 151 163 174 176 174 179 186 190 190 202 196 199 202 203 213 211 208 209 153 113 138 141 121 103 113 115
4 1 358 1 355 3 1 6 34 27 24 9 357 5 2 8 355 346 341 334 337 5 12 349 337 343 347 336 157 159 157 154 150 149 141 102 74 56 38 7 353 348 90 28 358 246 199 196 195 202 203 196 195 191 150 128 169 191 135 98 60 99 144
356 355 357 356 356 358 359 2 42 37 36 15 11 16 11 15 2 350 345 352 346 351 30 346 8 14 355 352 26 121 142 142 143 142 129 119 114 98 73 54 55 36 47 24 2 23 17 95 183 164 135 106 49 348 193 187 163 120 109 96 79 73 77
352 353 352 356 359 351 357 358 40 64 49 21 8 19 9 10 2 354 357 1 351 351 5 19 48 43 15 15 17 31 114 130 137 140 126 122 116 111 108 92 51 44 42 49 59 63 60 62 65 78 100 123 106 48 59 89 107 114 114 105 97 94 99
344 349 344 356 357 340 344 352 16 67 63 38 17 5 4 15 12 3 1 4 354 6 24 20 47 51 32 29 25 42 75 115 128 120 112 111 118 121 121 110 99 57 34 37 52 61 67 70 71 70 71 83 108 117 59 56 89 116 118 112 101 98 105